Regional Weather Roundup
Issued by NWS Albany, NY

Home | Current Version | Previous Version | Text Only | Print | Product List | Glossary On
Versions: 1 2 3 4 5 6 7 8 9 10 11 12 13 14 15 16 17 18 19 20 21 22 23 24 25 26 27 28 29 30 31 32 33 34 35 36 37 38 39 40 41 42 43 44 45 46 47 48 49 50
000
ASUS41 KALY 021210
RWRALY

NEW YORK STATE HOURLY WEATHER ROUNDUP
NATIONAL WEATHER SERVICE ALBANY NY
800 AM EDT THU JUL 02 2015

NOTE: "FAIR" INDICATES FEW OR NO CLOUDS BELOW 12,000 FEET WITH NO
SIGNIFICANT WEATHER AND/OR NO OBSTRUCTIONS TO VISIBILITY.

NYZ032-033-038>043-046>054-057>066-NYZ062>081-021300-
EAST


CITY           SKY/WX    TMP DP  RH WIND       PRES   REMARKS
ALBANY         PTSUNNY   65  56  72 W8        29.91R
GLENS FALLS    PTSUNNY   64  58  80 CALM      29.88R
POUGHKEEPSIE   PTSUNNY   67  60  78 CALM      29.90R
MONTGOMERY     PTSUNNY   67  59  75 CALM      29.91R
WHITE PLAINS   MOSUNNY   69  59  70 NW3       29.90R
ISLIP          PTSUNNY   72  60  66 N3        29.89R
NEW YORK CITY  PTSUNNY   71  58  63 NW6       29.89S
CENTRAL PARK   MOSUNNY   71  57  61 CALM      29.93R
$$

NYZ005>009-017-018-044>046-055-056-021300-
CENTRAL


CITY           SKY/WX    TMP DP  RH WIND       PRES   REMARKS
FULTON         MOSUNNY   61  54  77 NW6       29.94R
SYRACUSE       PTSUNNY   61  56  83 W6        29.93S
ROME           CLOUDY    58  56  93 NW3       29.95R
ELMIRA         CLOUDY    60  59  96 SW6       29.94S FOG
BINGHAMTON     PTSUNNY   60  58  92 W3        29.95S
MONTICELLO     PTSUNNY   57  55  94 CALM      29.96R
$$

NYZ026>034-041>043-021300-
NORTH


CITY           SKY/WX    TMP DP  RH WIND       PRES   REMARKS
WATERTOWN      MOSUNNY   60  51  72 N6        29.93R
FORT DRUM      NOT AVBL
MASSENA        SUNNY     58  50  75 W10       29.89S
SARANAC LAKE   PTSUNNY   52  47  83 VRB6      29.89S
PLATTSBURGH    PTSUNNY   61  49  64 W7        29.86S
$$

NYZ001>004-010>016-019>021-021300-
WEST


CITY           SKY/WX    TMP DP  RH WIND       PRES   REMARKS
NIAGARA FALLS  PTSUNNY   59  54  83 N6        29.96R
BUFFALO        PTSUNNY   60  55  83 N5        29.96S
DUNKIRK        CLOUDY    62  57  83 NE7       29.97R
JAMESTOWN      MOSUNNY   55  54  94 E3        29.98R
WELLSVILLE     CLOUDY    59  56  89 W5        29.99S FOG
ROCHESTER      CLOUDY    61  56  83 NW5       29.96S
PENN YAN       CLOUDY    61  56  83 VRB3      29.95S
$$

             KEY
       WCI = WIND CHILL INDEX
       VSB = VISIBILITY
       HX  = HEAT INDEX
$$



USA.gov is the U.S. government's official web portal to all federal, state and local government web resources and services.